Datum;"Wasserstand in cm";"Stationsnummer: 6945001";"Stationsname: Letschin, Wehr OP";"Gew?sser: Letschiner Hauptgraben";"Fehlwerte: -777"
"06.04.2024 00:00";82
"06.04.2024 00:15";82
"06.04.2024 00:30";82
"06.04.2024 00:45";82
"06.04.2024 01:00";82
"06.04.2024 01:15";82
"06.04.2024 01:30";82
"06.04.2024 01:45";82
"06.04.2024 02:00";82
"06.04.2024 02:15";82
"06.04.2024 02:30";82
"06.04.2024 02:45";82
"06.04.2024 03:00";82
"06.04.2024 03:15";82
"06.04.2024 03:30";82
"06.04.2024 03:45";82
"06.04.2024 04:00";82
"06.04.2024 04:15";82
"06.04.2024 04:30";82
"06.04.2024 04:45";82
"06.04.2024 05:00";82
"06.04.2024 05:15";82
"06.04.2024 05:30";82
"06.04.2024 05:45";82
"06.04.2024 06:00";82
"06.04.2024 06:15";82
"06.04.2024 06:30";81
"06.04.2024 06:45";81
"06.04.2024 07:00";82
"06.04.2024 07:15";82
"06.04.2024 07:30";82
"06.04.2024 07:45";82
"06.04.2024 08:00";82
"06.04.2024 08:15";82
"06.04.2024 08:30";82
"06.04.2024 08:45";82
"06.04.2024 09:00";82
"06.04.2024 09:15";82
"06.04.2024 09:30";81
"06.04.2024 09:45";81
"06.04.2024 10:00";81
"06.04.2024 10:15";81
"06.04.2024 10:30";82
"06.04.2024 10:45";82
"06.04.2024 11:00";82
"06.04.2024 11:15";82
"06.04.2024 11:30";82
"06.04.2024 11:45";82
"06.04.2024 12:00";82
"06.04.2024 12:15";82
"06.04.2024 12:30";82
"06.04.2024 12:45";81
"06.04.2024 13:00";81
"06.04.2024 13:15";81
"06.04.2024 13:30";81
"06.04.2024 13:45";81
"06.04.2024 14:00";81
"06.04.2024 14:15";82
"06.04.2024 14:30";82
"06.04.2024 14:45";82
"06.04.2024 15:00";82
"06.04.2024 15:15";82
"06.04.2024 15:30";81
"06.04.2024 15:45";81
"06.04.2024 16:00";81
"06.04.2024 16:15";81
"06.04.2024 16:30";81
"06.04.2024 16:45";80
"06.04.2024 17:00";80
"06.04.2024 17:15";80
"06.04.2024 17:30";80
"06.04.2024 17:45";81
"06.04.2024 18:00";81
"06.04.2024 18:15";81
"06.04.2024 18:30";81
"06.04.2024 18:45";80
"06.04.2024 19:00";80
"06.04.2024 19:15";80
"06.04.2024 19:30";80
"06.04.2024 19:45";80
"06.04.2024 20:00";80
"06.04.2024 20:15";80
"06.04.2024 20:30";80
"06.04.2024 20:45";81
"06.04.2024 21:00";81
"06.04.2024 21:15";81
"06.04.2024 21:30";81
"06.04.2024 21:45";82
"06.04.2024 22:00";82
"06.04.2024 22:15";82
"06.04.2024 22:30";82
"06.04.2024 22:45";82
"06.04.2024 23:00";82
"06.04.2024 23:15";82
"06.04.2024 23:30";82
"06.04.2024 23:45";82
"07.04.2024 00:00";82
"07.04.2024 00:15";82
"07.04.2024 00:30";82
"07.04.2024 00:45";83
"07.04.2024 01:00";83
"07.04.2024 01:15";83
"07.04.2024 01:30";83
"07.04.2024 01:45";83
"07.04.2024 02:00";82
"07.04.2024 02:15";82
"07.04.2024 02:30";82
"07.04.2024 02:45";82
"07.04.2024 03:00";82
"07.04.2024 03:15";82
"07.04.2024 03:30";82
"07.04.2024 03:45";83
"07.04.2024 04:00";83
"07.04.2024 04:15";83
"07.04.2024 04:30";83
"07.04.2024 04:45";83
"07.04.2024 05:00";82
"07.04.2024 05:15";82
"07.04.2024 05:30";82
"07.04.2024 05:45";82
"07.04.2024 06:00";82
"07.04.2024 06:15";82
"07.04.2024 06:30";82
"07.04.2024 06:45";82
"07.04.2024 07:00";82
"07.04.2024 07:15";82
"07.04.2024 07:30";82
"07.04.2024 07:45";82
"07.04.2024 08:00";82
"07.04.2024 08:15";82
"07.04.2024 08:30";82
"07.04.2024 08:45";82
"07.04.2024 09:00";82
"07.04.2024 09:15";81
"07.04.2024 09:30";81
"07.04.2024 09:45";81
"07.04.2024 10:00";81
"07.04.2024 10:15";81
"07.04.2024 10:30";82
"07.04.2024 10:45";82
"07.04.2024 11:00";82
"07.04.2024 11:15";82
"07.04.2024 11:30";82
"07.04.2024 11:45";81
"07.04.2024 12:00";81
"07.04.2024 12:15";81
"07.04.2024 12:30";81
"07.04.2024 12:45";81
"07.04.2024 13:00";81
"07.04.2024 13:15";81
"07.04.2024 13:30";81
"07.04.2024 13:45";81
"07.04.2024 14:00";81
"07.04.2024 14:15";81
"07.04.2024 14:30";81
"07.04.2024 14:45";81
"07.04.2024 15:00";80
"07.04.2024 15:15";80
"07.04.2024 15:30";80
"07.04.2024 15:45";80
"07.04.2024 16:00";80
"07.04.2024 16:15";79
"07.04.2024 16:30";79
"07.04.2024 16:45";79
"07.04.2024 17:00";79
"07.04.2024 17:15";79
"07.04.2024 17:30";79
"07.04.2024 17:45";79
"07.04.2024 18:00";79
"07.04.2024 18:15";79
"07.04.2024 18:30";79
"07.04.2024 18:45";79
"07.04.2024 19:00";79
"07.04.2024 19:15";79
"07.04.2024 19:30";79
"07.04.2024 19:45";79
"07.04.2024 20:00";79
"07.04.2024 20:15";79
"07.04.2024 20:30";80
"07.04.2024 20:45";80
"07.04.2024 21:00";80
"07.04.2024 21:15";80
"07.04.2024 21:30";80
"07.04.2024 21:45";80
"07.04.2024 22:00";80
"07.04.2024 22:15";80
"07.04.2024 22:30";80
"07.04.2024 22:45";80
"07.04.2024 23:00";80
"07.04.2024 23:15";81
"07.04.2024 23:30";81
"07.04.2024 23:45";81
"08.04.2024 00:00";81
"08.04.2024 00:15";82
"08.04.2024 00:30";82
"08.04.2024 00:45";82
"08.04.2024 01:00";82
"08.04.2024 01:15";81
"08.04.2024 01:30";81
"08.04.2024 01:45";81
"08.04.2024 02:00";81
"08.04.2024 02:15";81
"08.04.2024 02:30";81
"08.04.2024 02:45";82
"08.04.2024 03:00";82
"08.04.2024 03:15";82
"08.04.2024 03:30";82
"08.04.2024 03:45";82
"08.04.2024 04:00";82
"08.04.2024 04:15";82
"08.04.2024 04:30";82
"08.04.2024 04:45";82
"08.04.2024 05:00";82
"08.04.2024 05:15";82
"08.04.2024 05:30";81
"08.04.2024 05:45";81
"08.04.2024 06:00";81
"08.04.2024 06:15";81
"08.04.2024 06:30";82
"08.04.2024 06:45";82
"08.04.2024 07:00";82
"08.04.2024 07:15";82
"08.04.2024 07:30";82
"08.04.2024 07:45";82
"08.04.2024 08:00";82
"08.04.2024 08:15";82
"08.04.2024 08:30";81
"08.04.2024 08:45";81
"08.04.2024 09:00";81
"08.04.2024 09:15";81
"08.04.2024 09:30";81
"08.04.2024 09:45";81
"08.04.2024 10:00";81
"08.04.2024 10:15";81
"08.04.2024 10:30";81
"08.04.2024 10:45";81
"08.04.2024 11:00";81
"08.04.2024 11:15";81
"08.04.2024 11:30";82
"08.04.2024 11:45";81
"08.04.2024 12:00";81
"08.04.2024 12:15";81
"08.04.2024 12:30";81
"08.04.2024 12:45";81
"08.04.2024 13:00";81
"08.04.2024 13:15";81
"08.04.2024 13:30";81
"08.04.2024 13:45";80
"08.04.2024 14:00";80
"08.04.2024 14:15";80
"08.04.2024 14:30";80
"08.04.2024 14:45";80
"08.04.2024 15:00";80
"08.04.2024 15:15";80
"08.04.2024 15:30";80
"08.04.2024 15:45";80
"08.04.2024 16:00";80
"08.04.2024 16:15";80
"08.04.2024 16:30";80
"08.04.2024 16:45";79
"08.04.2024 17:00";79
"08.04.2024 17:15";79
"08.04.2024 17:30";79
"08.04.2024 17:45";79
"08.04.2024 18:00";79
"08.04.2024 18:15";79
"08.04.2024 18:30";79
"08.04.2024 18:45";79
"08.04.2024 19:00";79
"08.04.2024 19:15";79
"08.04.2024 19:30";79
"08.04.2024 19:45";79
"08.04.2024 20:00";79
"08.04.2024 20:15";79
"08.04.2024 20:30";79
"08.04.2024 20:45";79
"08.04.2024 21:00";79
"08.04.2024 21:15";79
"08.04.2024 21:30";79
"08.04.2024 21:45";79
"08.04.2024 22:00";80
"08.04.2024 22:15";80
"08.04.2024 22:30";80
"08.04.2024 22:45";80
"08.04.2024 23:00";81
"08.04.2024 23:15";81
"08.04.2024 23:30";81
"08.04.2024 23:45";81
"09.04.2024 00:00";81
"09.04.2024 00:15";81
"09.04.2024 00:30";81
"09.04.2024 00:45";81
"09.04.2024 01:00";81
"09.04.2024 01:15";81
"09.04.2024 01:30";81
"09.04.2024 01:45";81
"09.04.2024 02:00";81
"09.04.2024 02:15";81
"09.04.2024 02:30";81
"09.04.2024 02:45";81
"09.04.2024 03:00";82
"09.04.2024 03:15";82
"09.04.2024 03:30";82
"09.04.2024 03:45";82
"09.04.2024 04:00";82
"09.04.2024 04:15";82
"09.04.2024 04:30";82
"09.04.2024 04:45";82
"09.04.2024 05:00";82
"09.04.2024 05:15";82
"09.04.2024 05:30";81
"09.04.2024 05:45";81
"09.04.2024 06:00";81
"09.04.2024 06:15";81
"09.04.2024 06:30";81
"09.04.2024 06:45";81
"09.04.2024 07:00";81
"09.04.2024 07:15";81
"09.04.2024 07:30";81
"09.04.2024 07:45";82
"09.04.2024 08:00";82
"09.04.2024 08:15";82
"09.04.2024 08:30";82
"09.04.2024 08:45";82
"09.04.2024 09:00";82
"09.04.2024 09:15";82
"09.04.2024 09:30";81
"09.04.2024 09:45";81
"09.04.2024 10:00";81
"09.04.2024 10:15";81
"09.04.2024 10:30";81
"09.04.2024 10:45";81
"09.04.2024 11:00";81
"09.04.2024 11:15";81
"09.04.2024 11:30";81
"09.04.2024 11:45";81
"09.04.2024 12:00";81
"09.04.2024 12:15";81
"09.04.2024 12:30";81
"09.04.2024 12:45";81
"09.04.2024 13:00";81
"09.04.2024 13:15";81
"09.04.2024 13:30";81
"09.04.2024 13:45";80
"09.04.2024 14:00";80
"09.04.2024 14:15";80
"09.04.2024 14:30";80
"09.04.2024 14:45";80
"09.04.2024 15:00";79
"09.04.2024 15:15";79
"09.04.2024 15:30";79
"09.04.2024 15:45";79
"09.04.2024 16:00";79
"09.04.2024 16:15";79
"09.04.2024 16:30";79
"09.04.2024 16:45";79
"09.04.2024 17:00";79
"09.04.2024 17:15";79
"09.04.2024 17:30";79
"09.04.2024 17:45";79
"09.04.2024 18:00";79
"09.04.2024 18:15";79
"09.04.2024 18:30";79
"09.04.2024 18:45";79
"09.04.2024 19:00";79
"09.04.2024 19:15";79
"09.04.2024 19:30";79
"09.04.2024 19:45";79
"09.04.2024 20:00";79
"09.04.2024 20:15";79
"09.04.2024 20:30";79
"09.04.2024 20:45";80
"09.04.2024 21:00";80
"09.04.2024 21:15";80
"09.04.2024 21:30";80
"09.04.2024 21:45";80
"09.04.2024 22:00";80
"09.04.2024 22:15";80
"09.04.2024 22:30";80
"09.04.2024 22:45";80
"09.04.2024 23:00";80
"09.04.2024 23:15";80
"09.04.2024 23:30";80
"09.04.2024 23:45";80
"10.04.2024 00:00";80
"10.04.2024 00:15";80
"10.04.2024 00:30";80
"10.04.2024 00:45";80
"10.04.2024 01:00";81
"10.04.2024 01:15";81
"10.04.2024 01:30";81
"10.04.2024 01:45";81
"10.04.2024 02:00";81
"10.04.2024 02:15";81
"10.04.2024 02:30";81
"10.04.2024 02:45";81
"10.04.2024 03:00";81
"10.04.2024 03:15";81
"10.04.2024 03:30";81
"10.04.2024 03:45";81
"10.04.2024 04:00";81
"10.04.2024 04:15";81
"10.04.2024 04:30";81
"10.04.2024 04:45";81
"10.04.2024 05:00";81
"10.04.2024 05:15";81
"10.04.2024 05:30";81
"10.04.2024 05:45";81
"10.04.2024 06:00";82
"10.04.2024 06:15";82
"10.04.2024 06:30";82
"10.04.2024 06:45";81
"10.04.2024 07:00";81
"10.04.2024 07:15";81
"10.04.2024 07:30";81
"10.04.2024 07:45";81
"10.04.2024 08:00";81
"10.04.2024 08:15";81
"10.04.2024 08:30";81
"10.04.2024 08:45";81
"10.04.2024 09:00";81
"10.04.2024 09:15";81
"10.04.2024 09:30";81
"10.04.2024 09:45";81
"10.04.2024 10:00";81
"10.04.2024 10:15";81
"10.04.2024 10:30";81
"10.04.2024 10:45";81
"10.04.2024 11:00";81
"10.04.2024 11:15";81
"10.04.2024 11:30";81
"10.04.2024 11:45";81
"10.04.2024 12:00";81
"10.04.2024 12:15";81
"10.04.2024 12:30";80
"10.04.2024 12:45";80
"10.04.2024 13:00";80
"10.04.2024 13:15";80
"10.04.2024 13:30";81
"10.04.2024 13:45";81
"10.04.2024 14:00";81
"10.04.2024 14:15";81
"10.04.2024 14:30";81
"10.04.2024 14:45";81
"10.04.2024 15:00";81
"10.04.2024 15:15";81
"10.04.2024 15:30";81
"10.04.2024 15:45";81
"10.04.2024 16:00";81
"10.04.2024 16:15";80
"10.04.2024 16:30";80
"10.04.2024 16:45";80
"10.04.2024 17:00";80
"10.04.2024 17:15";80
"10.04.2024 17:30";80
"10.04.2024 17:45";80
"10.04.2024 18:00";81
"10.04.2024 18:15";81
"10.04.2024 18:30";81
"10.04.2024 18:45";81
"10.04.2024 19:00";81
"10.04.2024 19:15";81
"10.04.2024 19:30";81
"10.04.2024 19:45";81
"10.04.2024 20:00";81
"10.04.2024 20:15";81
"10.04.2024 20:30";81
"10.04.2024 20:45";81
"10.04.2024 21:00";81
"10.04.2024 21:15";81
"10.04.2024 21:30";81
"10.04.2024 21:45";81
"10.04.2024 22:00";81
"10.04.2024 22:15";81
"10.04.2024 22:30";81
"10.04.2024 22:45";82
"10.04.2024 23:00";82
"10.04.2024 23:15";82
"10.04.2024 23:30";82
"10.04.2024 23:45";81
"11.04.2024 00:00";81
"11.04.2024 00:15";81
"11.04.2024 00:30";81
"11.04.2024 00:45";81
"11.04.2024 01:00";81
"11.04.2024 01:15";81
"11.04.2024 01:30";81
"11.04.2024 01:45";81
"11.04.2024 02:00";81
"11.04.2024 02:15";81
"11.04.2024 02:30";81
"11.04.2024 02:45";82
"11.04.2024 03:00";82
"11.04.2024 03:15";82
"11.04.2024 03:30";82
"11.04.2024 03:45";82
"11.04.2024 04:00";82
"11.04.2024 04:15";81
"11.04.2024 04:30";81
"11.04.2024 04:45";81
"11.04.2024 05:00";81
"11.04.2024 05:15";81
"11.04.2024 05:30";81
"11.04.2024 05:45";81
"11.04.2024 06:00";81
"11.04.2024 06:15";81
"11.04.2024 06:30";81
"11.04.2024 06:45";81
"11.04.2024 07:00";81
"11.04.2024 07:15";81
"11.04.2024 07:30";81
"11.04.2024 07:45";81
"11.04.2024 08:00";81
"11.04.2024 08:15";81
"11.04.2024 08:30";81
"11.04.2024 08:45";81
"11.04.2024 09:00";81
"11.04.2024 09:15";81
"11.04.2024 09:30";81
"11.04.2024 09:45";81
"11.04.2024 10:00";81
"11.04.2024 10:15";80
"11.04.2024 10:30";80
"11.04.2024 10:45";80
"11.04.2024 11:00";80
"11.04.2024 11:15";80
"11.04.2024 11:30";80
"11.04.2024 11:45";80
"11.04.2024 12:00";81
"11.04.2024 12:15";81
"11.04.2024 12:30";81
"11.04.2024 12:45";81
"11.04.2024 13:00";81
"11.04.2024 13:15";81
"11.04.2024 13:30";81
"11.04.2024 13:45";80
"11.04.2024 14:00";80
"11.04.2024 14:15";80
"11.04.2024 14:30";80
"11.04.2024 14:45";80
"11.04.2024 15:00";80
"11.04.2024 15:15";80
"11.04.2024 15:30";79
"11.04.2024 15:45";79
"11.04.2024 16:00";79
"11.04.2024 16:15";79
"11.04.2024 16:30";79
"11.04.2024 16:45";80
"11.04.2024 17:00";80
"11.04.2024 17:15";80
"11.04.2024 17:30";80
"11.04.2024 17:45";80
"11.04.2024 18:00";80
"11.04.2024 18:15";80
"11.04.2024 18:30";80
"11.04.2024 18:45";80
"11.04.2024 19:00";80
"11.04.2024 19:15";80
"11.04.2024 19:30";79
"11.04.2024 19:45";79
"11.04.2024 20:00";79
"11.04.2024 20:15";79
"11.04.2024 20:30";79
"11.04.2024 20:45";79
"11.04.2024 21:00";79
"11.04.2024 21:15";79
"11.04.2024 21:30";80
"11.04.2024 21:45";80
"11.04.2024 22:00";80
"11.04.2024 22:15";80
"11.04.2024 22:30";80
"11.04.2024 22:45";80
"11.04.2024 23:00";80
"11.04.2024 23:15";80
"11.04.2024 23:30";80
"11.04.2024 23:45";80
"12.04.2024 00:00";80
"12.04.2024 00:15";80
"12.04.2024 00:30";80
"12.04.2024 00:45";80
"12.04.2024 01:00";80
"12.04.2024 01:15";80
"12.04.2024 01:30";80
"12.04.2024 01:45";80
"12.04.2024 02:00";80
"12.04.2024 02:15";80
"12.04.2024 02:30";80
"12.04.2024 02:45";80
"12.04.2024 03:00";81
"12.04.2024 03:15";81
"12.04.2024 03:30";81
"12.04.2024 03:45";81
"12.04.2024 04:00";80
"12.04.2024 04:15";80
"12.04.2024 04:30";80
"12.04.2024 04:45";80
"12.04.2024 05:00";80
"12.04.2024 05:15";80
"12.04.2024 05:30";80
"12.04.2024 05:45";80
"12.04.2024 06:00";80
"12.04.2024 06:15";80
"12.04.2024 06:30";80
"12.04.2024 06:45";80
"12.04.2024 07:00";80
"12.04.2024 07:15";80
"12.04.2024 07:30";80
"12.04.2024 07:45";80
"12.04.2024 08:00";80
"12.04.2024 08:15";80
"12.04.2024 08:30";80
"12.04.2024 08:45";80
"12.04.2024 09:00";80
"12.04.2024 09:15";80
"12.04.2024 09:30";80
"12.04.2024 09:45";80
"12.04.2024 10:00";80
"12.04.2024 10:15";80
"12.04.2024 10:30";79
"12.04.2024 10:45";79
"12.04.2024 11:00";79
"12.04.2024 11:15";79
"12.04.2024 11:30";79
"12.04.2024 11:45";79
"12.04.2024 12:00";79
"12.04.2024 12:15";79
"12.04.2024 12:30";80
"12.04.2024 12:45";80
"12.04.2024 13:00";80
"12.04.2024 13:15";80
"12.04.2024 13:30";80
"12.04.2024 13:45";80
"12.04.2024 14:00";80
"12.04.2024 14:15";80
"12.04.2024 14:30";80
"12.04.2024 14:45";79
"12.04.2024 15:00";79
"12.04.2024 15:15";79
"12.04.2024 15:30";79
"12.04.2024 15:45";79
"12.04.2024 16:00";78
"12.04.2024 16:15";78
"12.04.2024 16:30";78
"12.04.2024 16:45";78
"12.04.2024 17:00";78
"12.04.2024 17:15";78
"12.04.2024 17:30";77
"12.04.2024 17:45";77
"12.04.2024 18:00";77
"12.04.2024 18:15";77
"12.04.2024 18:30";77
"12.04.2024 18:45";76
"12.04.2024 19:00";76
"12.04.2024 19:15";76
"12.04.2024 19:30";75
"12.04.2024 19:45";75
"12.04.2024 20:00";75
"12.04.2024 20:15";74
"12.04.2024 20:30";74
"12.04.2024 20:45";74
"12.04.2024 21:00";74
"12.04.2024 21:15";74
"12.04.2024 21:30";74
"12.04.2024 21:45";74
"12.04.2024 22:00";74
"12.04.2024 22:15";74
"12.04.2024 22:30";74
"12.04.2024 22:45";74
"12.04.2024 23:00";74
"12.04.2024 23:15";74
"12.04.2024 23:30";74
"12.04.2024 23:45";73
"13.04.2024 00:00";73
"13.04.2024 00:15";73
"13.04.2024 00:30";73
"13.04.2024 00:45";73
"13.04.2024 01:00";73
"13.04.2024 01:15";73
"13.04.2024 01:30";73
"13.04.2024 01:45";73
"13.04.2024 02:00";72
"13.04.2024 02:15";72
"13.04.2024 02:30";73
"13.04.2024 02:45";73
"13.04.2024 03:00";73
"13.04.2024 03:15";73
"13.04.2024 03:30";73
"13.04.2024 03:45";73
"13.04.2024 04:00";74
"13.04.2024 04:15";73
"13.04.2024 04:30";73
"13.04.2024 04:45";73
"13.04.2024 05:00";73
"13.04.2024 05:15";73
"13.04.2024 05:30";73
"13.04.2024 05:45";73
"13.04.2024 06:00";73
"13.04.2024 06:15";73
"13.04.2024 06:30";73
"13.04.2024 06:45";73
"13.04.2024 07:00";73
"13.04.2024 07:15";73
"13.04.2024 07:30";73
"13.04.2024 07:45";73
"13.04.2024 08:00";73
"13.04.2024 08:15";74
"13.04.2024 08:30";74
"13.04.2024 08:45";74
"13.04.2024 09:00";74
"13.04.2024 09:15";74
"13.04.2024 09:30";74
"13.04.2024 09:45";74
"13.04.2024 10:00";74
"13.04.2024 10:15";74
"13.04.2024 10:30";74
"13.04.2024 10:45";73
"13.04.2024 11:00";73
"13.04.2024 11:15";73
"13.04.2024 11:30";73
"13.04.2024 11:45";73
"13.04.2024 12:00";73
"13.04.2024 12:15";73
"13.04.2024 12:30";74
"13.04.2024 12:45";74
"13.04.2024 13:00";74
"13.04.2024 13:15";74
"13.04.2024 13:30";74
"13.04.2024 13:45";75
"13.04.2024 14:00";75
"13.04.2024 14:15";75
"13.04.2024 14:30";74
"13.04.2024 14:45";74
"13.04.2024 15:00";74
"13.04.2024 15:15";74
"13.04.2024 15:30";74
"13.04.2024 15:45";74
"13.04.2024 16:00";74
"13.04.2024 16:15";74
"13.04.2024 16:30";74
"13.04.2024 16:45";74
"13.04.2024 17:00";74
"13.04.2024 17:15";74
"13.04.2024 17:30";74
"13.04.2024 17:45";74
"13.04.2024 18:00";74
"13.04.2024 18:15";74
"13.04.2024 18:30";75
"13.04.2024 18:45";75
"13.04.2024 19:00";75
"13.04.2024 19:15";75
"13.04.2024 19:30";75
"13.04.2024 19:45";75
"13.04.2024 20:00";75
"13.04.2024 20:15";75
"13.04.2024 20:30";74
"13.04.2024 20:45";74
"13.04.2024 21:00";74
"13.04.2024 21:15";74
"13.04.2024 21:30";74
"13.04.2024 21:45";74
"13.04.2024 22:00";74
"13.04.2024 22:15";74
"13.04.2024 22:30";75
"13.04.2024 22:45";75
"13.04.2024 23:00";75
"13.04.2024 23:15";75
"13.04.2024 23:30";76
"13.04.2024 23:45";76
"14.04.2024 00:00";76
"14.04.2024 00:15";76
"14.04.2024 00:30";76
"14.04.2024 00:45";76
"14.04.2024 01:00";76
"14.04.2024 01:15";76
"14.04.2024 01:30";76
"14.04.2024 01:45";76
"14.04.2024 02:00";76
"14.04.2024 02:15";76
"14.04.2024 02:30";76
"14.04.2024 02:45";76
"14.04.2024 03:00";76
"14.04.2024 03:15";76
"14.04.2024 03:30";76
"14.04.2024 03:45";76
"14.04.2024 04:00";76
"14.04.2024 04:15";76
"14.04.2024 04:30";77
"14.04.2024 04:45";77
"14.04.2024 05:00";77
"14.04.2024 05:15";77
"14.04.2024 05:30";77
"14.04.2024 05:45";77
"14.04.2024 06:00";77
"14.04.2024 06:15";77
"14.04.2024 06:30";77
"14.04.2024 06:45";77
"14.04.2024 07:00";76
"14.04.2024 07:15";76
"14.04.2024 07:30";76
"14.04.2024 07:45";76
"14.04.2024 08:00";76
"14.04.2024 08:15";76
"14.04.2024 08:30";76
"14.04.2024 08:45";76
"14.04.2024 09:00";77
"14.04.2024 09:15";77
"14.04.2024 09:30";77
"14.04.2024 09:45";77
"14.04.2024 10:00";77
"14.04.2024 10:15";77
"14.04.2024 10:30";77
"14.04.2024 10:45";77
"14.04.2024 11:00";77
"14.04.2024 11:15";77
"14.04.2024 11:30";77
"14.04.2024 11:45";77
"14.04.2024 12:00";77
"14.04.2024 12:15";77
"14.04.2024 12:30";76
"14.04.2024 12:45";76
"14.04.2024 13:00";76
"14.04.2024 13:15";76
"14.04.2024 13:30";76
"14.04.2024 13:45";76
"14.04.2024 14:00";76
"14.04.2024 14:15";77
"14.04.2024 14:30";77
"14.04.2024 14:45";77
"14.04.2024 15:00";77
"14.04.2024 15:15";77
"14.04.2024 15:30";77
"14.04.2024 15:45";77
"14.04.2024 16:00";77
"14.04.2024 16:15";77
"14.04.2024 16:30";77
"14.04.2024 16:45";77
"14.04.2024 17:00";76
"14.04.2024 17:15";76
"14.04.2024 17:30";76
"14.04.2024 17:45";76
"14.04.2024 18:00";76
"14.04.2024 18:15";76
"14.04.2024 18:30";76
"14.04.2024 18:45";76
"14.04.2024 19:00";76
"14.04.2024 19:15";76
"14.04.2024 19:30";76
"14.04.2024 19:45";77
"14.04.2024 20:00";77
"14.04.2024 20:15";77
"14.04.2024 20:30";77
"14.04.2024 20:45";77
"14.04.2024 21:00";77
"14.04.2024 21:15";77
"14.04.2024 21:30";77
"14.04.2024 21:45";77
"14.04.2024 22:00";77
"14.04.2024 22:15";77
"14.04.2024 22:30";77
"14.04.2024 22:45";77
"14.04.2024 23:00";77
"14.04.2024 23:15";77
"14.04.2024 23:30";76
"14.04.2024 23:45";77
"15.04.2024 00:00";77
"15.04.2024 00:15";77
"15.04.2024 00:30";77
"15.04.2024 00:45";77
"15.04.2024 01:00";77
"15.04.2024 01:15";78
"15.04.2024 01:30";78
"15.04.2024 01:45";78
"15.04.2024 02:00";78
"15.04.2024 02:15";77
"15.04.2024 02:30";77
"15.04.2024 02:45";77
"15.04.2024 03:00";77
"15.04.2024 03:15";77
"15.04.2024 03:30";77
"15.04.2024 03:45";77
"15.04.2024 04:00";77
"15.04.2024 04:15";77
"15.04.2024 04:30";77
"15.04.2024 04:45";77
"15.04.2024 05:00";77
"15.04.2024 05:15";77
"15.04.2024 05:30";78
"15.04.2024 05:45";78
"15.04.2024 06:00";78
"15.04.2024 06:15";78
"15.04.2024 06:30";78
"15.04.2024 06:45";78
"15.04.2024 07:00";78
"15.04.2024 07:15";78
"15.04.2024 07:30";78
"15.04.2024 07:45";78
"15.04.2024 08:00";78
"15.04.2024 08:15";77
"15.04.2024 08:30";77
"15.04.2024 08:45";77
"15.04.2024 09:00";77
"15.04.2024 09:15";77
"15.04.2024 09:30";77
"15.04.2024 09:45";77
"15.04.2024 10:00";77
"15.04.2024 10:15";78
"15.04.2024 10:30";78
"15.04.2024 10:45";78
"15.04.2024 11:00";78
"15.04.2024 11:15";78
"15.04.2024 11:30";78
"15.04.2024 11:45";78
"15.04.2024 12:00";78
"15.04.2024 12:15";78
"15.04.2024 12:30";78
"15.04.2024 12:45";78
"15.04.2024 13:00";78
"15.04.2024 13:15";78
"15.04.2024 13:30";77
"15.04.2024 13:45";77
"15.04.2024 14:00";77
"15.04.2024 14:15";77
"15.04.2024 14:30";77
"15.04.2024 14:45";77
"15.04.2024 15:00";78
"15.04.2024 15:15";78
"15.04.2024 15:30";78
"15.04.2024 15:45";78
"15.04.2024 16:00";78
"15.04.2024 16:15";78
"15.04.2024 16:30";78
"15.04.2024 16:45";78
"15.04.2024 17:00";78
"15.04.2024 17:15";78
"15.04.2024 17:30";78
"15.04.2024 17:45";78
"15.04.2024 18:00";78
"15.04.2024 18:15";77
"15.04.2024 18:30";77
"15.04.2024 18:45";77
"15.04.2024 19:00";77
"15.04.2024 19:15";77
"15.04.2024 19:30";78
"15.04.2024 19:45";78
"15.04.2024 20:00";78
"15.04.2024 20:15";78
"15.04.2024 20:30";78
"15.04.2024 20:45";78
"15.04.2024 21:00";79
"15.04.2024 21:15";79
"15.04.2024 21:30";78
"15.04.2024 21:45";78
"15.04.2024 22:00";78
"15.04.2024 22:15";78
"15.04.2024 22:30";78
"15.04.2024 22:45";78
"15.04.2024 23:00";78
"15.04.2024 23:15";78
"15.04.2024 23:30";78
"15.04.2024 23:45";78
"16.04.2024 00:00";78
"16.04.2024 00:15";78
"16.04.2024 00:30";78
"16.04.2024 00:45";78
"16.04.2024 01:00";78
"16.04.2024 01:15";79
"16.04.2024 01:30";79
"16.04.2024 01:45";79
"16.04.2024 02:00";79
"16.04.2024 02:15";79
"16.04.2024 02:30";79
"16.04.2024 02:45";79
"16.04.2024 03:00";79
"16.04.2024 03:15";79
"16.04.2024 03:30";79
"16.04.2024 03:45";79
"16.04.2024 04:00";79
"16.04.2024 04:15";78
"16.04.2024 04:30";78
"16.04.2024 04:45";78
"16.04.2024 05:00";78
"16.04.2024 05:15";78
"16.04.2024 05:30";78
"16.04.2024 05:45";78
"16.04.2024 06:00";78
"16.04.2024 06:15";78
"16.04.2024 06:30";78
"16.04.2024 06:45";78
"16.04.2024 07:00";78
"16.04.2024 07:15";78
"16.04.2024 07:30";78
"16.04.2024 07:45";79
"16.04.2024 08:00";79
"16.04.2024 08:15";79
"16.04.2024 08:30";79
"16.04.2024 08:45";79
"16.04.2024 09:00";79
"16.04.2024 09:15";79
"16.04.2024 09:30";79
"16.04.2024 09:45";79
"16.04.2024 10:00";79
"16.04.2024 10:15";79
"16.04.2024 10:30";79
"16.04.2024 10:45";79
"16.04.2024 11:00";79
"16.04.2024 11:15";79
"16.04.2024 11:30";79
"16.04.2024 11:45";78
"16.04.2024 12:00";78
"16.04.2024 12:15";78
"16.04.2024 12:30";78
"16.04.2024 12:45";79
"16.04.2024 13:00";79
"16.04.2024 13:15";79
"16.04.2024 13:30";79
"16.04.2024 13:45";79
"16.04.2024 14:00";78
"16.04.2024 14:15";78
"16.04.2024 14:30";78
"16.04.2024 14:45";78
"16.04.2024 15:00";78
"16.04.2024 15:15";78
"16.04.2024 15:30";78
"16.04.2024 15:45";78
"16.04.2024 16:00";78
"16.04.2024 16:15";78
"16.04.2024 16:30";78
"16.04.2024 16:45";78
"16.04.2024 17:00";78
"16.04.2024 17:15";79
"16.04.2024 17:30";79
"16.04.2024 17:45";79
"16.04.2024 18:00";79
"16.04.2024 18:15";79
"16.04.2024 18:30";79
"16.04.2024 18:45";79
"16.04.2024 19:00";79
"16.04.2024 19:15";78
"16.04.2024 19:30";78
"16.04.2024 19:45";78
"16.04.2024 20:00";79
"16.04.2024 20:15";79
"16.04.2024 20:30";78
"16.04.2024 20:45";78
"16.04.2024 21:00";78
"16.04.2024 21:15";78
"16.04.2024 21:30";78
"16.04.2024 21:45";78
"16.04.2024 22:00";78
"16.04.2024 22:15";78
"16.04.2024 22:30";78
"16.04.2024 22:45";78
"16.04.2024 23:00";78
"16.04.2024 23:15";79
"16.04.2024 23:30";79
"16.04.2024 23:45";79
"17.04.2024 00:00";79
"17.04.2024 00:15";79
"17.04.2024 00:30";79
"17.04.2024 00:45";79
"17.04.2024 01:00";79
"17.04.2024 01:15";79
"17.04.2024 01:30";79
"17.04.2024 01:45";79
"17.04.2024 02:00";79
"17.04.2024 02:15";79
"17.04.2024 02:30";79
"17.04.2024 02:45";79
"17.04.2024 03:00";78
"17.04.2024 03:15";78
"17.04.2024 03:30";78
"17.04.2024 03:45";78
"17.04.2024 04:00";78
"17.04.2024 04:15";78
"17.04.2024 04:30";78
"17.04.2024 04:45";79
"17.04.2024 05:00";79
"17.04.2024 05:15";79
"17.04.2024 05:30";79
"17.04.2024 05:45";79
"17.04.2024 06:00";79
"17.04.2024 06:15";79
"17.04.2024 06:30";79
"17.04.2024 06:45";79